Time,TemperatureF,DewpointF,PressureIn,WindDirection,WindDirectionDegrees,WindSpeedMPH,WindSpeedGustMPH,Humidity,HourlyPrecipIn,Conditions,Clouds,dailyrainin,SoftwareType,DateUTC
2013-05-22 00:04:00,54.0,54.0,29.97,NE,49,7.0,20.0,99,0.00,,,0.00,,2013-05-22 04:04:00,
2013-05-22 00:33:00,51.0,51.0,29.98,NE,48,2.0,20.0,99,0.00,,,0.00,,2013-05-22 04:33:00,
2013-05-22 00:43:00,51.0,51.0,29.98,NE,48,2.0,20.0,99,0.00,,,0.00,,2013-05-22 04:43:00,
2013-05-22 00:53:00,51.0,51.0,29.98,NE,48,2.0,20.0,99,0.00,,,0.00,,2013-05-22 04:53:00,
2013-05-22 01:02:00,54.0,54.0,30.00,NNE,15,2.0,20.0,99,0.00,,,0.00,,2013-05-22 05:02:00,
2013-05-22 01:12:00,54.0,54.0,30.00,NNE,15,2.0,20.0,99,0.00,,,0.00,,2013-05-22 05:12:00,
2013-05-22 01:22:00,54.0,54.0,30.00,NNE,15,2.0,20.0,99,0.00,,,0.00,,2013-05-22 05:22:00,
2013-05-22 01:32:00,54.0,54.0,30.01,NNE,26,4.0,20.0,99,0.00,,,0.00,,2013-05-22 05:32:00,
2013-05-22 01:42:00,54.0,54.0,30.01,NNE,26,4.0,20.0,99,0.00,,,0.00,,2013-05-22 05:42:00,
2013-05-22 01:52:00,54.0,54.0,30.01,NNE,26,4.0,20.0,99,0.00,,,0.00,,2013-05-22 05:52:00,
2013-05-22 02:01:00,53.0,53.0,30.01,NNE,17,5.0,20.0,99,0.00,,,0.00,,2013-05-22 06:01:00,
2013-05-22 02:12:00,53.0,53.0,30.01,NNE,17,5.0,20.0,99,0.00,,,0.00,,2013-05-22 06:12:00,
2013-05-22 02:21:00,53.0,53.0,30.01,NNE,17,5.0,20.0,99,0.00,,,0.00,,2013-05-22 06:21:00,
2013-05-22 02:32:00,53.0,53.0,30.00,NNE,23,3.0,20.0,99,0.00,,,0.00,,2013-05-22 06:32:00,
2013-05-22 02:42:00,53.0,53.0,30.00,NNE,23,3.0,20.0,99,0.00,,,0.00,,2013-05-22 06:42:00,
2013-05-22 02:52:00,53.0,53.0,30.00,NNE,23,3.0,20.0,99,0.00,,,0.00,,2013-05-22 06:52:00,
2013-05-22 03:01:00,52.0,52.0,29.99,ENE,63,5.0,20.0,99,0.00,,,0.00,,2013-05-22 07:01:00,
2013-05-22 03:11:00,52.0,52.0,29.99,ENE,63,5.0,20.0,99,0.00,,,0.00,,2013-05-22 07:11:00,
2013-05-22 03:21:00,52.0,52.0,29.99,ENE,63,5.0,20.0,99,0.00,,,0.00,,2013-05-22 07:21:00,
2013-05-22 03:32:00,52.0,52.0,30.00,NE,35,2.0,20.0,99,0.00,,,0.00,,2013-05-22 07:32:00,
2013-05-22 03:42:00,52.0,52.0,30.00,NE,35,2.0,20.0,99,0.00,,,0.00,,2013-05-22 07:42:00,
2013-05-22 03:53:00,52.0,52.0,30.00,NE,35,2.0,20.0,99,0.00,,,0.00,,2013-05-22 07:53:00,
2013-05-22 04:02:00,51.0,51.0,30.00,NE,52,3.0,20.0,99,0.00,,,0.00,,2013-05-22 08:02:00,
2013-05-22 04:11:00,51.0,51.0,30.00,NE,52,3.0,20.0,99,0.00,,,0.00,,2013-05-22 08:11:00,
2013-05-22 04:22:00,51.0,51.0,30.00,NE,52,3.0,20.0,99,0.00,,,0.00,,2013-05-22 08:22:00,
2013-05-22 04:32:00,51.0,51.0,30.03,NW,313,3.0,20.0,99,0.00,,,0.00,,2013-05-22 08:32:00,
2013-05-22 04:42:00,51.0,51.0,30.03,NW,313,3.0,20.0,99,0.00,,,0.00,,2013-05-22 08:42:00,
2013-05-22 04:52:00,51.0,51.0,30.03,NW,313,3.0,20.0,99,0.00,,,0.00,,2013-05-22 08:52:00,
2013-05-22 05:01:00,51.0,51.0,30.01,North,353,2.0,20.0,99,0.00,,,0.00,,2013-05-22 09:01:00,
2013-05-22 05:12:00,51.0,51.0,30.01,North,353,2.0,20.0,99,0.00,,,0.00,,2013-05-22 09:12:00,
2013-05-22 05:22:00,51.0,51.0,30.01,North,353,2.0,20.0,99,0.00,,,0.00,,2013-05-22 09:22:00,
2013-05-22 05:33:00,50.0,50.0,30.01,NNE,31,0.0,20.0,99,0.00,,,0.00,,2013-05-22 09:33:00,
2013-05-22 05:42:00,50.0,50.0,30.01,NNE,31,0.0,20.0,99,0.00,,,0.00,,2013-05-22 09:42:00,
2013-05-22 05:53:00,50.0,50.0,30.01,NNE,31,0.0,20.0,99,0.00,,,0.00,,2013-05-22 09:53:00,
2013-05-22 06:03:00,50.0,50.0,30.00,NNE,31,0.0,20.0,99,0.00,,,0.00,,2013-05-22 10:03:00,
2013-05-22 06:12:00,50.0,50.0,30.00,NNE,31,0.0,20.0,99,0.00,,,0.00,,2013-05-22 10:12:00,
2013-05-22 06:23:00,50.0,50.0,30.00,NNE,31,0.0,20.0,99,0.00,,,0.00,,2013-05-22 10:23:00,
2013-05-22 06:33:00,50.0,50.0,30.01,NNE,30,0.0,20.0,99,0.00,,,0.00,,2013-05-22 10:33:00,
2013-05-22 06:42:00,50.0,50.0,30.01,NNE,30,0.0,20.0,99,0.00,,,0.00,,2013-05-22 10:42:00,
2013-05-22 06:53:00,50.0,50.0,30.01,NNE,30,0.0,20.0,99,0.00,,,0.00,,2013-05-22 10:53:00,
2013-05-22 07:02:00,51.0,51.0,30.01,NE,38,0.0,20.0,99,0.00,,,0.00,,2013-05-22 11:02:00,
2013-05-22 07:11:00,51.0,51.0,30.01,NE,38,0.0,20.0,99,0.00,,,0.00,,2013-05-22 11:11:00,
2013-05-22 07:22:00,51.0,51.0,30.01,NE,38,0.0,20.0,99,0.00,,,0.00,,2013-05-22 11:22:00,
2013-05-22 07:32:00,52.0,52.0,29.98,SSE,155,4.0,20.0,99,0.00,,,0.00,,2013-05-22 11:32:00,
2013-05-22 07:42:00,52.0,52.0,29.98,SSE,155,4.0,20.0,99,0.00,,,0.00,,2013-05-22 11:42:00,
2013-05-22 07:53:00,52.0,52.0,29.98,SSE,155,4.0,20.0,99,0.00,,,0.00,,2013-05-22 11:53:00,
2013-05-22 08:02:00,53.0,53.0,30.01,ESE,107,0.0,20.0,99,0.00,,,0.00,,2013-05-22 12:02:00,
2013-05-22 08:12:00,53.0,53.0,30.01,ESE,107,0.0,20.0,99,0.00,,,0.00,,2013-05-22 12:12:00,
2013-05-22 08:22:00,53.0,53.0,30.01,ESE,107,0.0,20.0,99,0.00,,,0.00,,2013-05-22 12:22:00,
2013-05-22 08:32:00,54.0,54.0,30.01,ESE,117,1.0,20.0,99,0.00,,,0.00,,2013-05-22 12:32:00,
2013-05-22 08:42:00,54.0,54.0,30.01,ESE,117,1.0,20.0,99,0.00,,,0.00,,2013-05-22 12:42:00,
2013-05-22 08:52:00,54.0,54.0,30.01,ESE,117,1.0,20.0,99,0.00,,,0.00,,2013-05-22 12:52:00,
2013-05-22 09:02:00,55.0,55.0,30.00,SSE,166,2.0,20.0,99,0.00,,,0.00,,2013-05-22 13:02:00,
2013-05-22 09:12:00,55.0,55.0,30.00,SSE,166,2.0,20.0,99,0.00,,,0.00,,2013-05-22 13:12:00,
2013-05-22 09:22:00,55.0,55.0,30.00,SSE,166,2.0,20.0,99,0.00,,,0.00,,2013-05-22 13:22:00,
2013-05-22 09:32:00,57.0,57.0,29.99,SE,132,3.0,20.0,99,0.00,,,0.00,,2013-05-22 13:32:00,
2013-05-22 09:42:00,57.0,57.0,29.99,SE,132,3.0,20.0,99,0.00,,,0.00,,2013-05-22 13:42:00,
2013-05-22 09:52:00,57.0,57.0,29.99,SE,132,3.0,20.0,99,0.00,,,0.00,,2013-05-22 13:52:00,
2013-05-22 10:02:00,58.0,58.0,29.98,South,185,5.0,20.0,99,0.00,,,0.00,,2013-05-22 14:02:00,
2013-05-22 10:11:00,58.0,58.0,29.98,South,185,5.0,20.0,99,0.00,,,0.00,,2013-05-22 14:11:00,
2013-05-22 10:22:00,58.0,58.0,29.98,South,185,5.0,20.0,99,0.00,,,0.00,,2013-05-22 14:22:00,
2013-05-22 10:32:00,58.0,58.0,29.98,South,185,5.0,20.0,99,0.00,,,0.00,,2013-05-22 14:32:00,
2013-05-22 11:02:00,60.0,60.0,29.98,SSE,148,1.0,20.0,99,0.00,,,0.00,,2013-05-22 15:02:00,
2013-05-22 11:11:00,60.0,60.0,29.98,SSE,148,1.0,20.0,99,0.00,,,0.00,,2013-05-22 15:11:00,
2013-05-22 11:22:00,60.0,60.0,29.99,SE,128,0.0,20.0,99,0.00,,,0.00,,2013-05-22 15:22:00,
2013-05-22 11:32:00,60.0,60.0,29.99,SSE,162,0.0,20.0,99,0.00,,,0.00,,2013-05-22 15:32:00,
2013-05-22 11:42:00,60.0,60.0,29.99,SSE,162,0.0,20.0,99,0.00,,,0.00,,2013-05-22 15:42:00,
2013-05-22 11:53:00,60.0,60.0,29.99,SSE,162,0.0,20.0,99,0.00,,,0.00,,2013-05-22 15:53:00,
2013-05-22 12:03:00,61.0,61.0,29.99,North,4,0.0,20.0,99,0.00,,,0.00,,2013-05-22 16:03:00,
2013-05-22 12:12:00,61.0,61.0,29.99,North,4,0.0,20.0,99,0.00,,,0.00,,2013-05-22 16:12:00,
2013-05-22 12:23:00,61.0,61.0,29.99,North,4,0.0,20.0,99,0.00,,,0.00,,2013-05-22 16:23:00,
2013-05-22 12:33:00,60.0,60.0,30.00,SSE,168,0.0,20.0,99,0.00,,,0.00,,2013-05-22 16:33:00,
2013-05-22 12:42:00,60.0,60.0,30.00,SSE,168,0.0,20.0,99,0.00,,,0.00,,2013-05-22 16:42:00,
2013-05-22 12:52:00,60.0,60.0,30.00,SSE,168,0.0,20.0,99,0.00,,,0.00,,2013-05-22 16:52:00,
2013-05-22 13:02:00,58.0,58.0,29.99,WSW,246,1.0,20.0,99,0.00,,,0.00,,2013-05-22 17:02:00,
2013-05-22 13:12:00,58.0,58.0,29.99,WSW,246,1.0,20.0,99,0.00,,,0.00,,2013-05-22 17:12:00,
2013-05-22 13:23:00,58.0,58.0,29.99,WSW,246,1.0,20.0,99,0.00,,,0.00,,2013-05-22 17:23:00,
2013-05-22 13:33:00,58.0,58.0,29.99,WSW,246,1.0,20.0,99,0.00,,,0.00,,2013-05-22 17:33:00,
2013-05-22 14:02:00,64.0,63.0,29.97,South,171,0.0,20.0,98,0.00,,,0.00,,2013-05-22 18:02:00,
2013-05-22 14:14:00,64.0,63.0,29.97,South,171,0.0,20.0,98,0.00,,,0.00,,2013-05-22 18:14:00,
2013-05-22 14:22:00,64.0,63.0,29.97,South,171,0.0,20.0,98,0.00,,,0.00,,2013-05-22 18:22:00,
2013-05-22 14:34:00,66.0,64.0,29.96,SSW,193,3.0,20.0,93,0.00,,,0.00,,2013-05-22 18:34:00,
2013-05-22 14:42:00,66.0,64.0,29.96,SSW,193,3.0,20.0,93,0.00,,,0.00,,2013-05-22 18:42:00,
2013-05-22 14:52:00,66.0,64.0,29.96,SSW,193,3.0,20.0,93,0.00,,,0.00,,2013-05-22 18:52:00,
2013-05-22 15:02:00,64.0,63.0,29.95,South,174,2.0,20.0,96,0.00,,,0.00,,2013-05-22 19:02:00,
2013-05-22 15:11:00,64.0,63.0,29.95,South,174,2.0,20.0,96,0.00,,,0.00,,2013-05-22 19:11:00,
2013-05-22 15:22:00,64.0,63.0,29.95,South,174,2.0,20.0,96,0.00,,,0.00,,2013-05-22 19:22:00,
2013-05-22 15:32:00,64.0,63.0,29.95,South,174,2.0,20.0,96,0.00,,,0.00,,2013-05-22 19:32:00,
2013-05-22 16:02:00,66.0,64.0,29.95,WSW,239,0.0,20.0,94,0.00,,,0.00,,2013-05-22 20:02:00,
2013-05-22 16:11:00,66.0,64.0,29.95,WSW,239,0.0,20.0,94,0.00,,,0.00,,2013-05-22 20:11:00,
2013-05-22 16:22:00,66.0,64.0,29.95,WSW,239,0.0,20.0,94,0.00,,,0.00,,2013-05-22 20:22:00,
2013-05-22 16:32:00,64.0,63.0,29.96,SSW,204,2.0,20.0,97,0.00,,,0.00,,2013-05-22 20:32:00,
2013-05-22 16:42:00,64.0,63.0,29.96,SSW,204,2.0,20.0,97,0.00,,,0.00,,2013-05-22 20:42:00,
2013-05-22 16:52:00,64.0,63.0,29.96,SSW,204,2.0,20.0,97,0.00,,,0.00,,2013-05-22 20:52:00,
2013-05-22 17:01:00,59.0,59.0,29.96,South,174,4.0,20.0,99,0.00,,,0.00,,2013-05-22 21:01:00,
2013-05-22 17:11:00,59.0,59.0,29.96,South,174,4.0,20.0,99,0.00,,,0.00,,2013-05-22 21:11:00,
2013-05-22 17:22:00,59.0,59.0,29.96,South,174,4.0,20.0,99,0.00,,,0.00,,2013-05-22 21:22:00,
2013-05-22 17:32:00,57.0,57.0,29.96,SSW,203,0.0,20.0,99,0.00,,,0.00,,2013-05-22 21:32:00,
2013-05-22 17:42:00,57.0,57.0,29.96,SSW,203,0.0,20.0,99,0.00,,,0.00,,2013-05-22 21:42:00,
2013-05-22 17:53:00,57.0,57.0,29.96,SSW,203,0.0,20.0,99,0.00,,,0.00,,2013-05-22 21:53:00,
2013-05-22 18:03:00,57.0,57.0,29.95,SSE,155,0.0,20.0,99,0.00,,,0.00,,2013-05-22 22:03:00,
2013-05-22 18:13:00,57.0,57.0,29.95,SSE,155,0.0,20.0,99,0.00,,,0.00,,2013-05-22 22:13:00,
2013-05-22 18:22:00,57.0,57.0,29.95,SSE,155,0.0,20.0,99,0.00,,,0.00,,2013-05-22 22:22:00,
2013-05-22 18:33:00,57.0,57.0,29.94,ESE,122,2.0,20.0,99,0.00,,,0.00,,2013-05-22 22:33:00,
2013-05-22 18:42:00,57.0,57.0,29.94,ESE,122,2.0,20.0,99,0.00,,,0.00,,2013-05-22 22:42:00,
2013-05-22 18:52:00,57.0,57.0,29.94,ESE,122,2.0,20.0,99,0.00,,,0.00,,2013-05-22 22:52:00,
2013-05-22 19:02:00,56.0,56.0,29.95,South,189,1.0,20.0,99,0.00,,,0.00,,2013-05-22 23:02:00,
2013-05-22 19:12:00,56.0,56.0,29.95,South,189,1.0,20.0,99,0.00,,,0.00,,2013-05-22 23:12:00,
2013-05-22 19:22:00,56.0,56.0,29.95,South,189,1.0,20.0,99,0.00,,,0.00,,2013-05-22 23:22:00,
2013-05-22 19:32:00,56.0,56.0,29.95,South,189,1.0,20.0,99,0.00,,,0.00,,2013-05-22 23:32:00,
2013-05-22 19:42:00,59.0,59.0,29.96,SE,143,0.0,20.0,99,0.00,,,0.00,,2013-05-22 23:42:00,
2013-05-22 20:02:00,59.0,59.0,29.96,SE,143,0.0,20.0,99,0.00,,,0.00,,2013-05-23 00:02:00,
2013-05-22 20:11:00,59.0,59.0,29.96,SE,143,0.0,20.0,99,0.00,,,0.00,,2013-05-23 00:11:00,
2013-05-22 20:22:00,59.0,59.0,29.96,SE,143,0.0,20.0,99,0.00,,,0.00,,2013-05-23 00:22:00,
2013-05-22 20:32:00,59.0,59.0,29.96,SE,143,0.0,20.0,99,0.00,,,0.00,,2013-05-23 00:32:00,
2013-05-22 21:01:00,59.0,59.0,29.97,ESE,119,0.0,20.0,99,0.00,,,0.00,,2013-05-23 01:01:00,
2013-05-22 21:11:00,59.0,59.0,29.97,ESE,119,0.0,20.0,99,0.00,,,0.00,,2013-05-23 01:11:00,
2013-05-22 21:22:00,59.0,59.0,29.97,ESE,119,0.0,20.0,99,0.00,,,0.00,,2013-05-23 01:22:00,
2013-05-22 21:32:00,59.0,59.0,29.97,ESE,119,0.0,20.0,99,0.00,,,0.00,,2013-05-23 01:32:00,
2013-05-22 21:42:00,59.0,59.0,29.97,ESE,119,0.0,20.0,99,0.00,,,0.00,,2013-05-23 01:42:00,
2013-05-22 21:52:00,59.0,59.0,29.97,ESE,119,0.0,20.0,99,0.00,,,0.00,,2013-05-23 01:52:00,
2013-05-22 22:02:00,59.0,59.0,29.99,ESE,119,0.0,20.0,99,0.00,,,0.00,,2013-05-23 02:02:00,
2013-05-22 22:11:00,59.0,59.0,29.99,ESE,119,0.0,20.0,99,0.00,,,0.00,,2013-05-23 02:11:00,
2013-05-22 22:22:00,59.0,59.0,29.99,ESE,119,0.0,20.0,99,0.00,,,0.00,,2013-05-23 02:22:00,
2013-05-22 22:32:00,59.0,59.0,29.99,ESE,119,0.0,20.0,99,0.00,,,0.00,,2013-05-23 02:32:00,
2013-05-22 22:42:00,59.0,59.0,29.99,ESE,119,0.0,20.0,99,0.00,,,0.00,,2013-05-23 02:42:00,
2013-05-22 22:52:00,59.0,59.0,29.99,ESE,119,0.0,20.0,99,0.00,,,0.00,,2013-05-23 02:52:00,
2013-05-22 23:02:00,59.0,59.0,29.99,SW,220,0.0,20.0,99,0.00,,,0.00,,2013-05-23 03:02:00,
2013-05-22 23:11:00,59.0,59.0,29.99,SW,220,0.0,20.0,99,0.00,,,0.00,,2013-05-23 03:11:00,
2013-05-22 23:12:00,59.0,59.0,29.99,SE,128,1.0,20.0,99,0.00,,,0.00,,2013-05-23 03:12:00,
2013-05-22 23:22:00,59.0,59.0,29.99,SW,220,0.0,20.0,99,0.00,,,0.00,,2013-05-23 03:22:00,
2013-05-22 23:33:00,59.0,59.0,29.99,SE,128,1.0,20.0,99,0.00,,,0.00,,2013-05-23 03:33:00,
2013-05-22 23:43:00,59.0,59.0,29.99,SE,128,1.0,20.0,99,0.00,,,0.00,,2013-05-23 03:43:00,
2013-05-22 23:53:00,59.0,59.0,29.99,SE,128,1.0,20.0,99,0.00,,,0.00,,2013-05-23 03:53:00,